When you browse on this site, cookies collect data to enhance your experience and personalize the content and advertising you see.
Visit our Privacy Policy to learn more. By continuing to use the site, you agree to this use of cookies and data.
  • In Switzerland
  • List of Countries
  • For 7 days
  • Water Temperature
  • Satellite Maps
  • Weather Map
  • Weather Widgets
  • user-avatar
    Login

    Hourly Weather Lubnice

    Today, 21 February, Thursday

    Time Temperature Precipitation Wind Pressure Humidity
    00:00 +3°C° 0 mm 3 mps 750 mmHg 84%
    01:00 +3°C° 0 mm 3 mps 750 mmHg 86%
    02:00 +3°C° 0 mm 3 mps 750 mmHg 86%
    03:00 +3°C° 0 mm 3 mps 750 mmHg 86%
    04:00 +3°C° 0 mm 3 mps 751 mmHg 87%
    05:00 +3°C° 0 mm 4 mps 750 mmHg 87%
    06:00 +3°C° 0 mm 4 mps 750 mmHg 86%
    07:00 +3°C° 0 mm 4 mps 750 mmHg 86%
    08:00 +3°C° 0 mm 4 mps 750 mmHg 83%
    09:00 +4°C° 0 mm 4 mps 750 mmHg 79%
    10:00 +5°C° 0 mm 5 mps 750 mmHg 75%
    11:00 +5°C° 0.2 mm 5 mps 750 mmHg 75%
    12:00 +6°C° 0.2 mm 5 mps 750 mmHg 74%
    13:00 +6°C° 0.2 mm 5 mps 750 mmHg 74%
    14:00 +6°C° 0.5 mm 5 mps 749 mmHg 75%
    15:00 +6°C° 0.5 mm 5 mps 749 mmHg 77%
    16:00 +5°C° 0.5 mm 5 mps 749 mmHg 78%
    17:00 +5°C° 0.6 mm 5 mps 749 mmHg 79%
    18:00 +5°C° 0.6 mm 5 mps 749 mmHg 80%
    19:00 +5°C° 0.6 mm 5 mps 749 mmHg 81%
    20:00 +5°C° 0.2 mm 5 mps 748 mmHg 83%
    21:00 +4°C° 0.2 mm 6 mps 748 mmHg 84%
    22:00 +4°C° 0.2 mm 6 mps 748 mmHg 86%
    23:00 +4°C° 1 mm 6 mps 748 mmHg 88%

    Tomorrow, 22 February, Friday

    Time Temperature Precipitation Wind Pressure Humidity
    00:00 +4°C° 1 mm 6 mps 747 mmHg 90%
    01:00 +5°C° 1 mm 6 mps 747 mmHg 92%
    02:00 +4°C° 0.9 mm 6 mps 747 mmHg 93%
    03:00 +4°C° 0.9 mm 6 mps 748 mmHg 93%
    04:00 +4°C° 0.9 mm 6 mps 748 mmHg 94%
    05:00 +3°C° 0.2 mm 7 mps 749 mmHg 90%
    06:00 0°C° 0.2 mm 7 mps 750 mmHg 86%
    07:00 -1°C° 0.2 mm 8 mps 751 mmHg 82%
    08:00 -1°C° 0 mm 7 mps 752 mmHg 77%
    09:00 -2°C° 0 mm 7 mps 754 mmHg 72%
    10:00 -2°C° 0 mm 6 mps 755 mmHg 67%
    11:00 -2°C° 0 mm 6 mps 756 mmHg 62%
    12:00 -1°C° 0 mm 6 mps 757 mmHg 56%
    13:00 0°C° 0 mm 5 mps 758 mmHg 50%
    14:00 0°C° 0 mm 5 mps 758 mmHg 49%
    15:00 -1°C° 0 mm 5 mps 758 mmHg 48%
    16:00 -1°C° 0 mm 5 mps 759 mmHg 46%
    17:00 -2°C° 0 mm 5 mps 759 mmHg 48%
    18:00 -2°C° 0 mm 5 mps 760 mmHg 49%
    19:00 -3°C° 0 mm 4 mps 761 mmHg 51%
    20:00 -3°C° 0 mm 4 mps 761 mmHg 50%
    21:00 -4°C° 0 mm 4 mps 762 mmHg 48%
    22:00 -4°C° 0 mm 4 mps 762 mmHg 47%
    23:00 -4°C° 0 mm 3 mps 762 mmHg 46%

    Day after tomorrow, 23 February, Saturday

    Time Temperature Precipitation Wind Pressure Humidity
    00:00 -4°C° 0 mm 3 mps 763 mmHg 45%
    01:00 -4°C° 0 mm 3 mps 763 mmHg 43%
    02:00 -4°C° 0 mm 3 mps 763 mmHg 42%
    03:00 -4°C° 0 mm 2 mps 763 mmHg 41%
    04:00 -4°C° 0 mm 2 mps 763 mmHg 41%
    05:00 -4°C° 0 mm 2 mps 763 mmHg 40%
    06:00 -4°C° 0 mm 2 mps 763 mmHg 40%
    07:00 -4°C° 0 mm 2 mps 763 mmHg 39%
    08:00 -3°C° 0 mm 2 mps 764 mmHg 36%
    09:00 -3°C° 0 mm 2 mps 764 mmHg 33%
    10:00 -2°C° 0 mm 2 mps 764 mmHg 29%
    11:00 -2°C° 0 mm 2 mps 764 mmHg 27%
    12:00 -1°C° 0 mm 2 mps 764 mmHg 25%
    13:00 +1°C° 0 mm 1 mps 763 mmHg 23%
    14:00 +1°C° 0 mm 1 mps 763 mmHg 23%
    15:00 +1°C° 0 mm 1 mps 763 mmHg 24%
    16:00 +1°C° 0 mm 1 mps 763 mmHg 25%
    17:00 +1°C° 0 mm 1 mps 763 mmHg 28%
    18:00 0°C° 0 mm 1 mps 763 mmHg 31%
    19:00 -1°C° 0 mm 1 mps 763 mmHg 34%
    20:00 -1°C° 0 mm 1 mps 763 mmHg 34%
    21:00 -1°C° 0 mm 1 mps 763 mmHg 34%
    22:00 -1°C° 0 mm 1 mps 763 mmHg 34%
    23:00 -1°C° 0 mm 1 mps 762 mmHg 34%

    24 February, Sunday

    Time Temperature Precipitation Wind Pressure Humidity
    00:00 -1°C° 0 mm 1 mps 762 mmHg 34%
    01:00 -1°C° 0 mm 1 mps 762 mmHg 34%
    02:00 -1°C° 0 mm 1 mps 762 mmHg 34%
    03:00 -1°C° 0 mm 1 mps 761 mmHg 35%
    04:00 -1°C° 0 mm 1 mps 761 mmHg 35%
    05:00 -1°C° 0 mm 1 mps 761 mmHg 34%
    06:00 -1°C° 0 mm 1 mps 761 mmHg 34%
    07:00 0°C° 0 mm 1 mps 761 mmHg 33%
    08:00 -1°C° 0 mm 2 mps 760 mmHg 31%
    09:00 +1°C° 0 mm 2 mps 760 mmHg 28%
    10:00 +2°C° 0 mm 2 mps 760 mmHg 25%
    11:00 +2°C° 0 mm 3 mps 760 mmHg 27%
    12:00 +3°C° 0 mm 3 mps 759 mmHg 28%
    13:00 +4°C° 0 mm 3 mps 759 mmHg 29%
    14:00 +3°C° 0 mm 3 mps 758 mmHg 35%
    15:00 +3°C° 0 mm 3 mps 758 mmHg 41%
    16:00 +4°C° 0 mm 2 mps 758 mmHg 48%
    17:00 +2°C° 0 mm 3 mps 758 mmHg 52%
    18:00 +2°C° 0 mm 3 mps 758 mmHg 56%
    19:00 +1°C° 0 mm 3 mps 757 mmHg 61%
    20:00 +1°C° 0 mm 3 mps 757 mmHg 63%
    21:00 +1°C° 0 mm 3 mps 757 mmHg 65%
    22:00 +1°C° 0 mm 3 mps 757 mmHg 67%
    23:00 +1°C° 0.3 mm 3 mps 757 mmHg 71%

    25 February, Monday

    Time Temperature Precipitation Wind Pressure Humidity
    00:00 0°C° 0.3 mm 4 mps 757 mmHg 75%
    01:00 0°C° 0.3 mm 4 mps 756 mmHg 79%
    02:00 0°C° 0 mm 4 mps 756 mmHg 83%
    03:00 0°C° 0 mm 4 mps 756 mmHg 87%
    04:00 0°C° 0 mm 4 mps 757 mmHg 91%
    05:00 0°C° 0 mm 4 mps 757 mmHg 92%
    06:00 +1°C° 0 mm 4 mps 757 mmHg 94%
    07:00 +1°C° 0 mm 5 mps 758 mmHg 95%
    08:00 +1°C° 0 mm 5 mps 758 mmHg 90%
    09:00 +2°C° 0 mm 5 mps 759 mmHg 85%
    10:00 +2°C° 0 mm 5 mps 759 mmHg 81%
    11:00 +3°C° 0 mm 5 mps 759 mmHg 74%
    12:00 +5°C° 0 mm 5 mps 759 mmHg 67%
    13:00 +6°C° 0 mm 5 mps 759 mmHg 61%
    14:00 +6°C° 0 mm 5 mps 759 mmHg 60%
    15:00 +6°C° 0 mm 4 mps 759 mmHg 59%
    16:00 +6°C° 0 mm 4 mps 759 mmHg 58%
    17:00 +5°C° 0 mm 4 mps 759 mmHg 62%
    18:00 +4°C° 0 mm 3 mps 759 mmHg 67%
    19:00 +3°C° 0 mm 3 mps 760 mmHg 72%
    20:00 +2°C° 0 mm 3 mps 760 mmHg 73%
    21:00 +3°C° 0 mm 2 mps 759 mmHg 75%
    22:00 +3°C° 0 mm 2 mps 759 mmHg 76%
    23:00 +2°C° 0 mm 2 mps 759 mmHg 77%

    26 February, Tuesday

    Time Temperature Precipitation Wind Pressure Humidity
    00:00 +1°C° 0 mm 3 mps 758 mmHg 78%
    01:00 +1°C° 0 mm 3 mps 758 mmHg 79%
    02:00 0°C° 0 mm 3 mps 757 mmHg 79%
    03:00 -1°C° 0 mm 4 mps 757 mmHg 79%
    04:00 -1°C° 0 mm 4 mps 756 mmHg 80%
    05:00 -1°C° 0 mm 4 mps 756 mmHg 82%
    06:00 -1°C° 0 mm 4 mps 755 mmHg 85%
    07:00 0°C° 0 mm 4 mps 755 mmHg 88%
    08:00 +1°C° 0 mm 5 mps 755 mmHg 83%
    09:00 +2°C° 0 mm 5 mps 754 mmHg 79%
    10:00 +3°C° 0 mm 6 mps 754 mmHg 75%
    11:00 +4°C° 0 mm 6 mps 753 mmHg 70%
    12:00 +5°C° 0 mm 6 mps 752 mmHg 66%
    13:00 +7°C° 0 mm 6 mps 752 mmHg 62%
    14:00 +8°C° 0 mm 6 mps 751 mmHg 62%
    15:00 +8°C° 0 mm 6 mps 751 mmHg 62%
    16:00 +8°C° 0 mm 6 mps 750 mmHg 62%
    17:00 +7°C° 0 mm 6 mps 750 mmHg 66%
    18:00 +6°C° 0 mm 5 mps 751 mmHg 71%
    19:00 +6°C° 0 mm 5 mps 751 mmHg 75%
    20:00 +5°C° 0 mm 5 mps 751 mmHg 77%
    21:00 +5°C° 0 mm 5 mps 750 mmHg 79%
    22:00 +5°C° 0 mm 5 mps 750 mmHg 81%
    23:00 +3°C° 0 mm 5 mps 751 mmHg 84%
    Show more